[[{"header":{"parameterUnit":"m.s-1","parameterCategory":1,"la1":30.2991,"la2":30.254,"lo1":-89.0895,"lo2":-89.0444,"dy":0.0017,"dx":0.0017,"nx":28,"ny":28,"refTime":"2024-09-29T21:00:00:Z","depth":0,"parameterNumber":2,"parameterNumberName":"U-component_of_WINDS"},"data":[0,0,0,0,0,0,0,0,0,0,0,0,0,0,0,0,0,0,0,0,0,0,0,0,0,0,0,0,0,0,0,0,0,0,0,0,0,0,0,0,0,0,0,0,0,0,0,0,0,0,0,0,0,0,0,0,0,0,2.2225,2.2226,0,2.2349,2.2351,2.2352,2.2345,2.2344,2.2342,2.234,2.2467,2.2472,2.2477,0,0,0,0,0,0,0,0,0,0,0,0,0,2.198,2.1984,2.2224,2.2226,2.2228,2.2349,2.2351,2.2353,2.2346,2.2344,2.2341,2.2339,2.2466,2.2472,2.2478,0,0,0,0,0,0,0,0,0,0,0,0,0,2.2093,2.1986,2.2224,2.2239,2.2241,2.2349,2.2351,2.2353,2.2346,2.2344,2.2341,2.2338,2.2464,2.2471,2.2478,2.2579,0,0,2.2502,2.2505,0,0,0,0,0,0,0,0,2.2087,2.2102,2.2235,2.2238,2.2241,2.2329,2.2311,2.2429,2.2347,2.2306,2.234,2.2337,2.2423,2.2434,2.2463,2.2585,2.2591,2.2502,2.2507,2.251,2.2512,0,0,0,0,0,0,0,2.2079,2.2097,2.2274,2.2237,2.2241,2.2239,2.2252,2.2333,2.2378,2.231,2.231,2.2324,2.2424,2.2456,2.2466,2.2592,2.2502,2.2509,2.2514,2.2516,2.2803,2.2806,0,0,0,0,0,0,2.2068,2.209,2.227,2.2278,2.2156,2.2246,2.226,2.2304,2.2378,2.2386,2.2327,2.2324,2.2445,2.2458,2.2471,2.2594,2.251,2.2517,2.2522,2.28,2.2804,2.2807,0,0,0,0,0,0,2.2063,2.2084,2.2265,2.2184,2.2207,2.2253,2.2301,2.2307,2.2339,2.239,2.2398,2.2351,2.2443,2.246,2.2552,2.2598,2.2521,2.2528,2.2797,2.2802,2.2806,2.284,0,0,0,0,0,0,2.2056,2.2082,2.2121,2.2185,2.2211,2.2345,2.2304,2.2312,2.2352,2.235,2.2415,2.2423,2.2442,2.2541,2.256,2.2607,2.2533,2.2793,2.2799,2.2804,2.2835,2.2845,2.2854,0,0,0,0,0,2.2047,2.2125,2.2123,2.2145,2.2261,2.2347,2.2362,2.2382,2.2356,2.2395,2.2428,2.2421,2.259,2.2551,2.2572,2.2622,2.279,2.2797,2.2804,2.2831,2.2843,2.2854,0,0,0,0,0,0,2.2065,2.2134,2.2132,2.2234,2.2285,2.2346,2.2396,2.2395,2.2454,2.2449,2.2472,2.2487,2.2579,2.261,2.2565,2.2723,2.2687,2.2698,2.27,2.2712,2.2721,2.2712,2.254,0,0,0,0,0,2.2081,2.2146,2.2202,2.2286,2.2312,2.235,2.2388,2.24,2.2453,2.2475,2.2514,2.2567,2.2631,2.2673,2.2736,2.284,2.2854,2.2885,2.2894,2.2901,2.2911,2.2968,2.2982,2.283,2.283,2.283,0,0,2.2114,2.216,2.2199,2.2291,2.2332,2.2398,2.2368,2.2439,2.2489,2.2485,2.2575,2.2606,2.2666,2.2764,2.281,2.2793,2.2956,2.291,2.2916,2.2921,2.2976,2.2991,2.3004,2.2835,2.2834,2.2833,0,0,2.2209,2.225,2.2324,2.2366,2.2429,2.2453,2.2471,2.2533,2.2554,2.2644,2.2643,2.2702,2.2813,2.2856,2.2892,2.3004,2.2999,2.3024,2.3073,2.3128,2.314,2.3151,2.319,2.3204,2.3033,2.3033,2.3033,0,2.2242,2.2342,2.2363,2.2435,2.2475,2.2476,2.2552,2.2591,2.2671,2.2699,2.2679,2.2819,2.2859,2.2967,2.2994,2.3024,2.3045,2.3016,2.3137,2.3148,2.3158,2.3196,2.3211,2.3036,2.3035,2.3035,2.3035,0,2.2379,2.2449,2.2502,2.2579,2.2625,2.2699,2.2731,2.2775,2.2783,2.281,2.2902,2.295,2.3023,2.305,2.3058,2.3159,2.3147,2.3132,2.3095,2.3175,2.321,2.3225,2.3039,2.3038,2.3038,2.3037,0,0,2.2488,2.2576,2.2595,2.263,2.27,2.2754,2.2827,2.2899,2.2936,2.2991,2.3053,2.3148,2.3135,2.3176,2.3189,2.3237,2.3322,2.3216,2.3218,2.3234,2.3437,2.3448,2.3464,2.332,2.3323,2.3325,2.3432,0,2.2589,2.2719,2.2741,2.2855,2.2919,2.2922,2.2986,2.3035,2.3063,2.3121,2.3151,2.3218,2.3195,2.322,2.3268,2.3302,2.3363,2.3294,2.3378,2.3381,2.3362,2.3483,2.3494,2.3592,2.3446,2.3449,2.345,0,2.2724,2.2783,2.2904,2.2965,2.2993,2.305,2.3117,2.3173,2.3229,2.3246,2.3292,2.33,2.3376,2.3337,2.3442,2.3395,2.3431,2.3452,2.3457,2.3464,2.342,2.3493,2.3624,2.3639,2.3473,2.3471,2.3469,0,2.279,2.29,2.2986,2.3016,2.309,2.313,2.3163,2.3216,2.3258,2.3317,2.3344,2.3411,2.3447,2.3499,2.3524,2.3493,2.3628,2.3591,2.3643,2.3643,2.3671,2.3668,2.3808,2.3695,2.3695,2.3694,2.3694,0,2.29,2.2974,2.3017,2.307,2.3153,2.3177,2.3259,2.329,2.3338,2.3397,2.3404,2.3459,2.3489,2.3549,2.357,2.3654,2.367,2.3685,2.369,2.3685,2.3683,2.3707,2.3701,2.3698,2.3697,2.3697,2.3696,0,2.2987,2.3019,2.3114,2.3176,2.3193,2.3252,2.3305,2.3357,2.3384,2.3459,2.3478,2.3521,2.3592,2.3622,2.371,2.3723,2.3819,2.3819,2.38,2.3802,2.3852,2.3847,2.4012,2.4035,2.3907,2.3908,2.3909,0,2.3055,2.3112,2.318,2.3221,2.3254,2.3319,2.3362,2.3388,2.3432,2.3501,2.3544,2.3616,2.3674,2.3787,2.3826,2.3893,2.3894,2.3947,2.3904,2.3897,2.3894,2.389,2.3896,2.3955,2.3956,2.3957,2.3958,0,2.3171,2.3185,2.3246,2.3313,2.3364,2.3418,2.3471,2.3504,2.3538,2.3587,2.366,2.3705,2.3795,2.3865,2.3935,2.3968,2.3969,2.3972,2.3987,2.3982,2.3968,2.3976,2.3821,2.3967,2.3966,2.3966,2.3965,2.3965,2.3251,2.3301,2.3358,2.3426,2.3469,2.3518,2.357,2.3604,2.3665,2.374,2.3752,2.383,2.3885,2.3978,2.4014,2.4075,2.4062,2.4085,2.409,2.4095,2.4098,2.396,2.4088,2.4088,2.4088,2.4088,2.4087,0,2.3367,2.3404,2.3466,2.354,2.3594,2.3591,2.3649,2.3694,2.3763,2.3814,2.3872,2.3956,2.4024,2.4069,2.4138,2.4178,2.4181,2.4196,2.4193,2.42,2.4106,2.4086,2.4193,2.4193,2.4193,2.4193,2.4193,2.4193,2.3434,2.352,2.354,2.3647,2.3683,2.3759,2.3793,2.3838,2.388,2.3973,2.403,2.4059,2.4108,2.4181,2.4244,2.4255,2.428,2.4296,2.4306,2.4218,2.4207,2.4196,2.4177,2.4301,2.4302,2.4395,2.4396,2.4397]},{"header":{"parameterUnit":"m.s-1","parameterCategory":1,"la1":30.2991,"la2":30.254,"lo1":-89.0895,"lo2":-89.0444,"dy":0.0017,"dx":0.0017,"nx":28,"ny":28,"refTime":"2024-09-29T21:00:00:Z","depth":0,"parameterNumber":3,"parameterNumberName":"V-component_of_WINDS"},"data":[0,0,0,0,0,0,0,0,0,0,0,0,0,0,0,0,0,0,0,0,0,0,0,0,0,0,0,0,0,0,0,0,0,0,0,0,0,0,0,0,0,0,0,0,0,0,0,0,0,0,0,0,0,0,0,0,0,0,0.8402,0.8403,0,0.849,0.8491,0.8492,0.8476,0.8475,0.8473,0.8472,0.856,0.8564,0.8568,0,0,0,0,0,0,0,0,0,0,0,0,0,0.822,0.8223,0.8402,0.8403,0.8404,0.849,0.8491,0.8492,0.8476,0.8474,0.8473,0.8471,0.8559,0.8564,0.8568,0,0,0,0,0,0,0,0,0,0,0,0,0,0.8302,0.8224,0.8402,0.8407,0.8408,0.8489,0.8491,0.8492,0.8477,0.8474,0.8472,0.847,0.8558,0.8563,0.8569,0.865,0,0,0.8586,0.8589,0,0,0,0,0,0,0,0,0.8297,0.8309,0.8405,0.8407,0.8408,0.847,0.8459,0.8545,0.8477,0.8451,0.8471,0.8469,0.8532,0.854,0.8561,0.8654,0.8658,0.8587,0.859,0.8593,0.8594,0,0,0,0,0,0,0,0.8292,0.8305,0.8437,0.8406,0.8408,0.8404,0.8413,0.8475,0.8503,0.8453,0.8452,0.8462,0.8532,0.8556,0.8563,0.866,0.8587,0.8592,0.8595,0.8597,0.8823,0.8826,0,0,0,0,0,0,0.8285,0.83,0.8434,0.8439,0.8346,0.8409,0.8419,0.8452,0.8502,0.8508,0.8464,0.8461,0.8547,0.8556,0.8566,0.8665,0.8593,0.8598,0.8601,0.8821,0.8824,0.8826,0,0,0,0,0,0,0.8281,0.8297,0.843,0.837,0.8386,0.8415,0.8452,0.8455,0.8478,0.8511,0.8516,0.8483,0.8546,0.8558,0.8629,0.8668,0.86,0.8606,0.8818,0.8822,0.8825,0.8863,0,0,0,0,0,0,0.8276,0.8295,0.8327,0.837,0.839,0.8493,0.8454,0.8459,0.8488,0.8485,0.853,0.8535,0.8545,0.8621,0.8635,0.8674,0.861,0.8814,0.8819,0.8824,0.8858,0.8867,0.8875,0,0,0,0,0,0.8269,0.8334,0.8329,0.8345,0.843,0.8495,0.8506,0.8516,0.8492,0.8524,0.8544,0.8534,0.8661,0.8628,0.8644,0.8686,0.8812,0.8818,0.8823,0.8854,0.8866,0.8875,0,0,0,0,0,0,0.8295,0.834,0.8335,0.8416,0.8452,0.8492,0.8533,0.8527,0.8571,0.8566,0.8576,0.8586,0.8659,0.8679,0.8642,0.8767,0.8733,0.8742,0.8751,0.8762,0.877,0.8764,0.8615,0,0,0,0,0,0.831,0.836,0.8396,0.8464,0.8482,0.8505,0.8533,0.8538,0.8575,0.859,0.8616,0.8653,0.8701,0.8732,0.8778,0.886,0.887,0.8897,0.8905,0.8912,0.892,0.8965,0.8977,0.8846,0.8845,0.8845,0,0,0.8342,0.8373,0.8403,0.847,0.8498,0.8549,0.8518,0.8573,0.861,0.8598,0.8668,0.8688,0.8729,0.8806,0.8841,0.8825,0.8958,0.8919,0.8924,0.8929,0.8972,0.8984,0.8995,0.8849,0.8849,0.8848,0,0,0.8426,0.8454,0.8514,0.8543,0.8586,0.86,0.8614,0.8656,0.8669,0.8738,0.873,0.8774,0.8857,0.8886,0.8912,0.9006,0.8998,0.902,0.9065,0.9108,0.9119,0.9128,0.9162,0.9173,0.9028,0.9028,0.9028,0,0.846,0.8537,0.8545,0.8601,0.863,0.8622,0.8682,0.8709,0.8765,0.8785,0.8767,0.887,0.8897,0.898,0.9003,0.9024,0.904,0.9016,0.9117,0.9126,0.9135,0.9167,0.9179,0.9031,0.903,0.903,0.903,0,0.8576,0.8629,0.8672,0.8727,0.876,0.8818,0.8835,0.8868,0.8869,0.8885,0.8955,0.8987,0.9039,0.9059,0.906,0.9142,0.9131,0.9114,0.9081,0.915,0.918,0.9192,0.9034,0.9033,0.9033,0.9032,0,0,0.868,0.8738,0.8754,0.8778,0.8824,0.8865,0.8922,0.8973,0.9001,0.9039,0.9087,0.9156,0.9141,0.917,0.9175,0.9212,0.9284,0.9191,0.9192,0.9208,0.9376,0.9389,0.9403,0.9278,0.9281,0.9283,0.9373,0,0.8769,0.887,0.8879,0.8969,0.9018,0.901,0.9059,0.9092,0.9108,0.9151,0.9168,0.9218,0.9193,0.9211,0.9248,0.9268,0.9318,0.9261,0.9323,0.9325,0.9314,0.9419,0.9433,0.9517,0.9385,0.9387,0.9388,0,0.8886,0.8928,0.9024,0.9063,0.9083,0.9128,0.9175,0.9216,0.9253,0.9262,0.9294,0.9293,0.935,0.9314,0.9393,0.9354,0.9379,0.9392,0.9396,0.9403,0.9362,0.9429,0.9544,0.9557,0.9407,0.9406,0.9404,0,0.8953,0.9033,0.9101,0.9122,0.9169,0.92,0.9221,0.9256,0.9286,0.9326,0.9346,0.9392,0.9418,0.9454,0.9465,0.9437,0.9543,0.9507,0.9552,0.9552,0.9576,0.9574,0.9697,0.9591,0.959,0.959,0.959,0,0.9052,0.911,0.9131,0.9173,0.9238,0.9247,0.9311,0.933,0.9361,0.9405,0.94,0.9442,0.9454,0.9497,0.9506,0.957,0.9581,0.959,0.9592,0.9591,0.959,0.9608,0.9603,0.9594,0.9593,0.9592,0.9592,0,0.9138,0.9154,0.9227,0.9265,0.9276,0.9323,0.9355,0.9395,0.9409,0.9465,0.9479,0.9502,0.9553,0.9567,0.9628,0.9633,0.9709,0.9705,0.9697,0.9697,0.974,0.9736,0.988,0.9899,0.978,0.9781,0.9782,0,0.92,0.9245,0.9288,0.9318,0.934,0.9388,0.9418,0.9428,0.946,0.9505,0.9539,0.9589,0.963,0.9711,0.9733,0.9779,0.9777,0.9823,0.9784,0.9781,0.9778,0.9775,0.978,0.9831,0.9833,0.9834,0.9835,0,0.9309,0.9314,0.9359,0.9406,0.9442,0.948,0.9516,0.954,0.9555,0.959,0.9643,0.9674,0.9736,0.9786,0.9832,0.9853,0.9846,0.9847,0.9859,0.986,0.9853,0.9858,0.9718,0.9844,0.9843,0.9842,0.9842,0.9841,0.9385,0.9425,0.9461,0.9511,0.9538,0.9572,0.9611,0.963,0.9674,0.9726,0.9728,0.9785,0.9819,0.9881,0.9904,0.9948,0.9934,0.9953,0.9957,0.9962,0.9966,0.9845,0.9956,0.9956,0.9956,0.9956,0.9956,0,0.9494,0.9517,0.9562,0.9613,0.9651,0.9641,0.968,0.9713,0.9763,0.9796,0.9836,0.9896,0.9944,0.9968,1.0016,1.0046,1.0044,1.0058,1.0056,1.0061,0.9976,0.996,1.0059,1.0059,1.0059,1.0059,1.0059,1.0059,0.9556,0.9622,0.9632,0.9711,0.9733,0.9789,0.9812,0.9843,0.9869,0.9936,0.9976,0.9992,1.0021,1.0071,1.0114,1.012,1.0138,1.0154,1.0158,1.0078,1.0067,1.0057,1.0043,1.0157,1.0157,1.024,1.0241,1.0241]}]]